Regional Weather Roundup
Issued by NWS Cleveland, OH

Home | Current Version | Previous Version | Graphics & Text | Print | Product List | Glossary On
Versions: 1 2 3 4 5 6 7 8 9 10 11 12 13 14 15 16 17 18 19 20 21 22 23 24 25 26 27 28 29 30 31 32 33 34 35 36 37 38 39 40 41 42 43 44 45 46 47 48 49 50
000
ASUS41 KCLE 032000
RWRCLE
OHIO REGIONAL WEATHER ROUNDUP
NATIONAL WEATHER SERVICE WILMINGTON, OH
400 PM EDT THU SEP 03 2015

NOTE: "FAIR" INDICATES FEW OR NO CLOUDS BELOW 12,000 FEET WITH NO
SIGNIFICANT WEATHER AND/OR OBSTRUCTIONS TO VISIBILITY.

OHZ001>008-015>018-024>027-034-035-043-044-032100-
   NORTHWEST OHIO

CITY           SKY/WX    TMP DP  RH WIND       PRES   REMARKS
DEFIANCE       SUNNY     91  65  41 SW8G20    29.93F HX  93
FINDLAY        MOSUNNY   89  66  46 W8        29.93F HX  91
TOLEDO EXPRESS MOSUNNY   90  65  43 W13       29.91F HX  92
TOLEDO EXEC    PTSUNNY   89  67  47 SW10      29.92F HX  92
LIMA           SUNNY     89  66  46 W13       29.96F HX  91
$$

OHZ009>014-019>023-028>033-038-089-032100-
   NORTHEAST OHIO

CITY           SKY/WX    TMP DP  RH WIND       PRES   REMARKS
CLE-HOPKINS    MOSUNNY   88  67  49 NW9       29.95F HX  91
CLE-LAKEFRONT  SUNNY     82  73  74 N6        29.93F
CUY CO. ARPT   MOSUNNY   86  70  58 NW12      29.96F HAZE    HX  90
LORAIN-ELYRIA  MOSUNNY   84  68  58 W7        29.94F
ASHTABULA      SUNNY     84  69  60 NW8       29.95S
AKRON-CANTON   PTSUNNY   80  67  64 SW13G22   29.96F
WOOSTER        LGT RAIN  72  66  83 NW13      29.99R
MANSFIELD      PTSUNNY   77  65  66 W7        29.98S
YOUNGSTOWN     PTSUNNY   81  68  64 S3        29.95F
$$

OHZ042-051>053-060>062-070>072-077>081-032100-
  SOUTHWEST OHIO

CITY           SKY/WX    TMP DP  RH WIND       PRES   REMARKS
CINC-COVINGTON MOSUNNY   90  64  42 CALM      29.98F HX  91
CINC-LUNKEN    MOSUNNY   90  65  43 CALM      29.96F HX  92
HAMILTON       MOSUNNY   91  66  43 VRB5      29.97F HX  93
DAYTON         NOT AVBL
WRIGHT-PAT AFB NOT AVBL
DAYTON GENERAL SUNNY     89  65  44 W7        29.97F HX  91
WILMINGTON     SUNNY     88  66  48 W9        29.97F HX  90
$$

OHZ036-037-039>041-045>050-054>059-063>069-073>076-082>088-032100-
  CENTRAL AND SOUTHEAST OHIO

CITY           SKY/WX    TMP DP  RH WIND       PRES   REMARKS
COLUMBUS       TSTM      76  67  73 SE13G30   29.95F
OSU AIRPORT    MOSUNNY   89  67  47 SW14G20   29.95F HX  92
BOLTON FIELD   PTSUNNY   81  64  57 W10G16    29.97F
RICKENBACK AFB NOT AVBL
NEWARK         MOSUNNY   87  69  54 W9        29.95F HX  91
MARION         LGT RAIN  74  68  81 E14       29.97S
LANCASTER      PTSUNNY   84  67  56 CALM      29.96F
ZANESVILLE     NOT AVBL
NEW PHILLY     MOSUNNY   87  68  52 NW13G18   29.96S THUNDER HX  90
$$


USA.gov is the U.S. government's official web portal to all federal, state and local government web resources and services.